Regional Weather Roundup
Issued by NWS

Home | Current Version | Previous Version | Text Only | Print | Product List | Glossary On
Versions: 1 2 3 4 5 6 7 8 9 10 11 12 13 14 15 16 17 18 19 20 21 22 23 24 25 26 27 28 29 30 31 32 33 34 35 36 37 38 39 40 41 42 43 44 45 46 47 48 49 50
805
ASUS43 KMKX 270021
RWRWI

WISCONSIN REGIONAL WEATHER ROUNDUP
NATIONAL WEATHER SERVICE MILWAUKEE/SULLIVAN WI
700 PM CDT SUN MAR 26 2017

NOTE: "FAIR" INDICATES FEW OR NO CLOUDS BELOW 12,000 FEET WITH NO
SIGNIFICANT WEATHER AND/OR OBSTRUCTIONS TO VISIBILITY.

WIZ001-002-006>008-014>016-023>028-270100-
NORTHWEST WISCONSIN

CITY           SKY/WX    TMP DP  RH WIND       PRES   REMARKS
SUPERIOR ARPT  CLOUDY    34  33  95 CALM      29.96S
6HR MIN TEMP:  34; 6HR MAX TEMP:  36; 6HR PCP:  0.01;

ASHLAND        CLOUDY    34  32  92 NE5       29.95S WCI  30
6HR MIN TEMP:  34; 6HR MAX TEMP:  37;

HAYWARD        CLOUDY    38  34  85 NE8       29.92R WCI  32
6HR MIN TEMP:  38; 6HR MAX TEMP:  42;

SIREN          LGT RAIN  37  36  96 N7        29.93S WCI  31
6HR MIN TEMP:  37; 6HR MAX TEMP:  41;

CUMBERLAND     CLOUDY    37  36  93 N8        29.90S FOG     WCI  31
RICE LAKE      CLOUDY    41  38  88 CALM      29.91S
6HR MIN TEMP:  39; 6HR MAX TEMP:  43;

CHETEK         CLOUDY    40  38  91 N3        29.90S
6HR MIN TEMP:  38; 6HR MAX TEMP:  42;

LADYSMITH      CLOUDY    41  38  87 N6        29.90R
6HR MIN TEMP:  40; 6HR MAX TEMP:  44;

EAU CLAIRE     CLOUDY    43  38  82 CALM      29.89R
6HR MIN TEMP:  39; 6HR MAX TEMP:  43;

MENOMONIE      CLOUDY    43  39  85 NW7       29.90R
6HR MIN TEMP:  39; 6HR MAX TEMP:  44;

NEW RICHMOND   CLOUDY    40  38  95 N7        29.92R WCI  35
6HR MIN TEMP:  39; 6HR MAX TEMP:  42;

OSCEOLA        CLOUDY    41  37  85 NW6       29.95R
6HR MIN TEMP:  40; 6HR MAX TEMP:  42;

$$

WIZ003>005-009-010-017-018-270100-
NORTH CENTRAL WISCONSIN

CITY           SKY/WX    TMP DP  RH WIND       PRES   REMARKS
MANITOWISH WTR DRIZZLE   35  35 100 N5        29.89R WCI  31
6HR MIN TEMP:  35; 6HR MAX TEMP:  39;

ARBOR VITAE    DRIZZLE   39  38  94 N5        29.87S
6HR MIN TEMP:  37; 6HR MAX TEMP:  42; 6HR PCP:  0.05;

WOODRUFF       DRIZZLE   39  38  94 N5        29.87S
6HR MIN TEMP:  37; 6HR MAX TEMP:  42; 6HR PCP:  0.05;

RHINELANDER    LGT RAIN  39  38  96 CALM      29.87S FOG
6HR MIN TEMP:  36; 6HR MAX TEMP:  39; 6HR PCP:  0.14;

EAGLE RIVER    LGT RAIN  37  37 100 N5        29.87R WCI  33
6HR MIN TEMP:  35; 6HR MAX TEMP:  38;

LAND O LAKES   DRIZZLE   37  36  99 N3        29.89S
6HR MIN TEMP:  36; 6HR MAX TEMP:  40;

PHILLIPS       DRIZZLE   38  37  97 N6        29.87S WCI  34
6HR MIN TEMP:  37; 6HR MAX TEMP:  40;

TOMAHAWK       DRIZZLE   38  37  96 CALM      29.88R
6HR MIN TEMP:  36; 6HR MAX TEMP:  38;

MEDFORD        RAIN      39  38  99 N3        29.86S
6HR MIN TEMP:  37; 6HR MAX TEMP:  39; 6HR PCP:  0.10;

MERRILL        RAIN      39  39 100 CALM      29.88R
6HR MIN TEMP:  37; 6HR MAX TEMP:  40; 6HR PCP:  0.14;

$$

WIZ029-030-035-036-043>047-270100-
CENTRAL WISCONSIN

CITY           SKY/WX    TMP DP  RH WIND       PRES   REMARKS
WAUSAU         LGT RAIN  39  38  96 CALM      29.86R FOG
6HR MIN TEMP:  37; 6HR MAX TEMP:  40; 6HR PCP:  0.16;

MOSINEE        RAIN      37  37 100 VRB3      29.88R
MARSHFIELD     LGT RAIN  39  37  92 N3        29.86R FOG
6HR MIN TEMP:  37; 6HR MAX TEMP:  40; 6HR PCP:  0.01;

STEVENS POINT  RAIN      37  37 100 CALM      29.88R
6HR MIN TEMP:  35; 6HR MAX TEMP:  37; 6HR PCP:  0.05;

WAUPACA        DRIZZLE   40  39  95 N5        29.87R
6HR MIN TEMP:  39; 6HR MAX TEMP:  41; 6HR PCP:  0.06;

WAUTOMA        LGT RAIN  39  38  96 N3        29.88R
6HR MIN TEMP:  38; 6HR MAX TEMP:  40; 6HR PCP:  0.32;

WISC RAPIDS    LGT RAIN  39  39 100 N3        29.88R FOG
6HR MIN TEMP:  37; 6HR MAX TEMP:  40; 6HR PCP:  0.05;

CAMP DOUGLAS   CLOUDY    39  39 100 N5        29.87S
6HR MIN TEMP:  38; 6HR MAX TEMP:  40; 6HR PCP: TRACE;

$$

WIZ011>013-019>022-031-037>040-048>050-270100-
NORTHEAST WISCONSIN

CITY           SKY/WX    TMP DP  RH WIND       PRES   REMARKS
ANTIGO         DRIZZLE   36  36 100 CALM      29.86S
6HR MIN TEMP:  35; 6HR MAX TEMP:  37; 6HR PCP:  0.05;

SHAWANO        DRIZZLE   39  37  93 N3        29.87S
6HR MIN TEMP:  38; 6HR MAX TEMP:  39; 6HR PCP:  0.21;

OCONTO         CLOUDY    37  36  97 N5        29.87R WCI  33
6HR MIN TEMP:  37; 6HR MAX TEMP:  37;

STURGEON BAY   CLOUDY    35  35 100 N8        29.86S WCI  29
6HR MIN TEMP:  35; 6HR MAX TEMP:  39; 6HR PCP:  0.08;

GREEN BAY      CLOUDY    38  38 100 NE6       29.87R FOG     WCI  33
6HR MIN TEMP:  38; 6HR MAX TEMP:  39; 6HR PCP:  0.06;

MANITOWOC      LGT RAIN  40  39  97 N3        29.86R VSB 1
6HR MIN TEMP:  40; 6HR MAX TEMP:  41;

APPLETON       DRIZZLE   39  39 100 N6        29.84R WCI  35
CLINTONVILLE   RAIN      37  36  93 N5        29.87R WCI  34
OSHKOSH        LGT RAIN  40  38  93 N7        29.85R FOG
6HR MIN TEMP:  39; 6HR MAX TEMP:  41; 6HR PCP:  0.12;

$$

WIZ032>034-041-042-053>061-270100-
SOUTHWEST WISCONSIN

CITY           SKY/WX    TMP DP  RH WIND       PRES   REMARKS
LA CROSSE      CLOUDY    43  40  89 NW6       29.89R FOG
6HR MIN TEMP:  41; 6HR MAX TEMP:  43; 6HR PCP: TRACE;

SPARTA         CLOUDY    40  39  97 NW5       29.90R
6HR MIN TEMP:  38; 6HR MAX TEMP:  41;

VIROQUA        CLOUDY    41  41 100 NW6       29.87R
6HR MIN TEMP:  40; 6HR MAX TEMP:  41;

BOSCOBEL       CLOUDY    46  43  89 N3        29.87R
6HR MIN TEMP:  44; 6HR MAX TEMP:  46; 6HR PCP: TRACE;

PRAIRIE DU CHI CLOUDY    44  41  91 NW5       29.88R
6HR MIN TEMP:  42; 6HR MAX TEMP:  45;

PLATTEVILLE    CLOUDY    45  45 100 NW5       29.87R
6HR MIN TEMP:  45; 6HR MAX TEMP:  48;

$$

WIZ056-057-062-063-064-067-068-270100-
SOUTH CENTRAL WISCONSIN

CITY           SKY/WX    TMP DP  RH WIND       PRES   REMARKS
REEDSBURG      CLOUDY    40  40 100 NW3       29.87R
6HR MIN TEMP:  38; 6HR MAX TEMP:  41; 6HR PCP:  0.03;

BARABOO/DELLS  DRIZZLE   40  39  95 CALM      29.87R
6HR MIN TEMP:  38; 6HR MAX TEMP:  40; 6HR PCP:  0.09;

LONE ROCK      CLOUDY    44  41  89 NW5       29.87R
6HR MIN TEMP:  43; 6HR MAX TEMP:  44; 6HR PCP: TRACE;

MINERAL POINT  CLOUDY    45  45 100 N3        29.85R
MADISON        LGT RAIN  42  41  96 NW5       29.86R FOG
6HR MIN TEMP:  42; 6HR MAX TEMP:  46; 6HR PCP:  0.01;

MIDDLETON      CLOUDY    44  44 100 NW5       29.87R
6HR MIN TEMP:  44; 6HR MAX TEMP:  46; 6HR PCP:  0.01;

WATERTOWN      CLOUDY    44  44 100 NW7       29.85R
6HR MIN TEMP:  44; 6HR MAX TEMP:  47; 6HR PCP:  0.11;

MONROE         CLOUDY    46  46 100 N3        29.84R FOG
JANESVILLE     CLOUDY    52  50  93 N3        29.84R FOG
$$

WIZ051-052-058>065-066-070>072-270100-
SOUTHEAST WISCONSIN

CITY           SKY/WX    TMP DP  RH WIND       PRES   REMARKS
MILWAUKEE      FOG       42  39  89 NE3       29.85R VSB 1
6HR MIN TEMP:  41; 6HR MAX TEMP:  46; 6HR PCP:  0.02;

WAUKESHA       CLOUDY    43  43 100 CALM      29.85  FOG
MILWAUKEE/TIMM DRIZZLE   43  39  87 CALM      29.85R
RACINE         LGT RAIN  42  39  89 N6        29.85R FOG
6HR MIN TEMP:  42; 6HR MAX TEMP:  48; 6HR PCP:  0.01;

KENOSHA        CLOUDY    47  46  97 E5        29.83R FOG
6HR MIN TEMP:  47; 6HR MAX TEMP:  52; 6HR PCP: TRACE;

FOND DU LAC    RAIN      41  38  89 N5        29.85R FOG
6HR MIN TEMP:  41; 6HR MAX TEMP:  43; 6HR PCP:  0.14;

SHEBOYGAN      LGT RAIN  41  39  93 NE3       29.85R FOG
6HR MIN TEMP:  40; 6HR MAX TEMP:  41; 6HR PCP:  0.12;

WEST BEND      LGT RAIN  43  43 100 CALM      29.84R
JUNEAU         LGT RAIN  42  41  98 CALM      29.86R
6HR MIN TEMP:  42; 6HR MAX TEMP:  44; 6HR PCP:  0.08;

$$

LSZ147-162-270100-
LAKE SUPERIOR

STATION/POSITION TIME  TEMP    WIND        PRES    WAVE
                       AIR SEA DIR/SP/G            HT/PER
                 (UTC) (F)     (DEG/KT/KT) (MB)    (FT/S)
DEVILS ISLAND    0000   34      40/  5/  6 1015.1R
PORT WING        2340   35      10/  5/  6 1014.6R
SAXON HARBOR     2330   33     330/  3/  4 1013.9R
$$

LMZ867-665-643>646-270100-
LAKE MICHIGAN

STATION/POSITION TIME  TEMP    WIND        PRES    WAVE
                       AIR SEA DIR/SP/G            HT/PER
                 (UTC) (F)     (DEG/KT/KT) (MB)    (FT/S)
CHAMBERS ISLAND  2340   33     360/  9/ 10



USA.gov is the U.S. government's official web portal to all federal, state and local government web resources and services.